Weather observations for the past three days for
Detroit Lakes Airport-Wething Field
Imperial (Metric)
Date Time (cdt) Wind (mph) Vis. (mi.) Weather Sky Cond. Temperature (ºF) Relative Humidity Wind Chill (°F) Heat Index (°F) Pressure Precipitation (in)
Air Dwpt 6 hour altimeter (in) sea level (mb) 1 hr 3 hr 6 hr
Max. Min.
15 18:15 NW 13 G 20 10.00 A Few Clouds FEW045 FEW055 75.2 57.2 54% 78 29.82 0.0
15 17:55 NW 13 G 24 10.00 Partly Cloudy FEW045 SCT055 75.2 57.2 54% 78 29.83 0.0
15 17:35 NW 15 10.00 A Few Clouds FEW045 75.2 57.2 54% 78 29.82 0.0
15 17:15 NW 13 G 20 10.00 A Few Clouds FEW042 FEW050 75.2 55.4 50% 78 29.82 0.0
15 16:55 NW 15 10.00 A Few Clouds FEW040 77 55.4 47% 79 29.83 0.0
15 16:35 NW 14 G 23 10.00 Fair CLR 77 59 54% 79 29.82 0.0
15 16:15 N 18 10.00 A Few Clouds FEW039 77 59 54% 79 29.82 0.0
15 15:55 NW 14 G 21 10.00 Partly Cloudy FEW037 SCT055 77 59 54% 79 29.82 0.0
15 15:35 NW 16 10.00 Mostly Cloudy BKN036 BKN044 BKN055 77 60.8 57% 79 29.82 0.0
15 15:15 NW 15 G 25 10.00 Partly Cloudy FEW033 SCT043 SCT055 77 62.6 61% 79 29.81 0.0
15 14:55 NW 13 10.00 Mostly Cloudy SCT033 BKN042 BKN055 77 62.6 61% 79 29.8 0.0
15 14:35 NW 14 10.00 Mostly Cloudy BKN036 77 62.6 61% 79 29.8 0.0
15 14:15 NW 13 10.00 Mostly Cloudy BKN033 BKN039 75.2 60.8 61% 77 29.8 0.0
15 13:55 NW 13 10.00 Partly Cloudy SCT034 SCT040 75.2 62.6 65% 77 29.8 0.0
15 13:35 NW 10 G 16 10.00 Partly Cloudy FEW028 SCT034 75.2 62.6 65% 77 29.8 0.0
15 13:15 NW 10 10.00 Partly Cloudy SCT024 SCT029 75.2 62.6 65% 77 29.8 0.0
15 12:55 NW 8 G 17 10.00 Mostly Cloudy SCT022 BKN029 BKN040 75.2 64.4 69% 77 29.79 0.0
15 12:35 N 9 G 15 10.00 Mostly Cloudy SCT022 BKN029 BKN041 73.4 64.4 74% 29.8 0.0
15 12:15 N 14 10.00 Overcast BKN022 OVC027 71.6 64.4 78% 29.8 0.0
15 11:55 N 14 10.00 Overcast BKN020 OVC025 71.6 64.4 78% 29.8 0.0
15 11:35 NW 8 G 16 10.00 Overcast BKN020 OVC025 71.6 64.4 78% 29.8 0.0
15 11:15 N 13 10.00 Overcast FEW015 OVC026 71.6 64.4 78% 29.8 0.0
15 10:55 N 14 10.00 Overcast FEW018 OVC027 71.6 66.2 83% 29.8 0.0
15 10:35 NW 15 10.00 Overcast SCT018 OVC025 71.6 66.2 83% 29.8 0.0
15 10:15 NW 10 10.00 Overcast FEW019 BKN025 OVC060 73.4 66.2 78% 29.8 0.0
15 09:55 NW 7 10.00 Mostly Cloudy BKN060 BKN070 BKN080 73.4 66.2 78% 29.79 0.0
15 09:35 SW 8 10.00 Mostly Cloudy FEW060 SCT070 BKN090 73.4 66.2 78% 29.77 0.0
15 09:15 Vrbl 6 10.00 Overcast BKN060 BKN070 OVC110 73.4 66.2 78% 29.78 0.0
15 08:55 SE 5 10.00 Overcast BKN060 OVC070 71.6 66.2 83% 29.77 0.0
15 08:35 S 5 10.00 Overcast BKN060 OVC075 71.6 66.2 83% 29.77 0.0
15 08:15 SE 5 10.00 Overcast BKN065 OVC075 69.8 66.2 88% 29.77 0.0
15 07:55 SE 7 10.00 Mostly Cloudy BKN070 BKN080 BKN090 69.8 64.4 83% 29.76 0.0
15 07:35 SE 6 10.00 Mostly Cloudy BKN080 BKN090 69.8 66.2 88% 29.76 0.0
15 07:15 SE 5 10.00 Partly Cloudy SCT080 68 64.4 88% 29.76 0.0
15 06:55 S 9 10.00 Fair CLR 68 64.4 88% 29.76 0.0
15 06:35 Vrbl 6 G 15 10.00 Fair CLR 66.2 64.4 94% 29.76 0.0
15 06:15 SE 9 10.00 Fair CLR 68 66.2 94% 29.76 0.0
15 05:55 SE 7 G 14 10.00 Mostly Cloudy FEW025 SCT032 BKN075 66.2 66.2 100% 29.79 0.0 0.09
15 05:35 E 12 8.00 Rain FEW031 BKN046 OVC100 66.2 66.2 100% 29.83 0.0
15 04:55 NW 5 9.00 Thunderstorm in Vicinity Rain BKN065 BKN075 OVC100 66.2 64.4 94% 29.85 0.0 0.04
15 04:35 N 5 10.00 Thunderstorm in Vicinity Rain FEW036 SCT060 BKN075 66.2 64.4 94% 29.84 0.0
15 04:15 E 6 10.00 Light Rain FEW020 BKN065 OVC110 68 64.4 88% 29.83 0.0
15 03:55 Calm 10.00 Mostly Cloudy FEW060 SCT075 BKN110 68 62.6 83% 29.84 0.0
15 03:35 E 7 10.00 Partly Cloudy FEW055 FEW070 SCT080 68 64.4 88% 29.8 0.0
15 03:15 E 5 10.00 Mostly Cloudy FEW049 SCT070 BKN110 69.8 64.4 83% 29.82 0.0
15 02:55 W 3 10.00 Fair CLR 69.8 64.4 83% 29.85 0.0
15 02:35 Calm 10.00 Fair CLR 69.8 64.4 83% 29.82 0.0
15 02:15 Calm 10.00 Fair CLR 69.8 62.6 78% 29.82 0.0
15 01:55 SE 3 10.00 Fair CLR 68 62.6 83% 29.82 0.0
15 01:35 SE 3 10.00 Fair CLR 68 62.6 83% 29.82 0.0
15 01:15 E 3 10.00 Fair CLR 68 62.6 83% 29.83 0.0
15 00:55 Calm 10.00 Fair CLR 68 62.6 83% 29.84 0.0
15 00:35 Calm 10.00 Fair CLR 66.2 62.6 88% 29.84 0.0
15 00:15 E 5 10.00 Fair CLR 66.2 62.6 88% 29.85 0.0
14 23:55 Calm 10.00 Fair CLR 68 62.6 83% 29.87 0.0
14 23:35 Calm 10.00 Fair CLR 66.2 64.4 94% 29.88 0.0
14 23:15 Calm 10.00 Fair CLR 68 64.4 88% 29.87 0.0
14 22:55 Calm 10.00 Fair CLR 69.8 64.4 83% 29.87 0.0
14 22:35 Calm 10.00 Fair CLR 69.8 64.4 83% 29.87 0.0
14 22:15 Calm 10.00 Fair CLR 69.8 64.4 83% 29.87 0.0
14 21:55 Calm 10.00 Fair CLR 71.6 62.6 73% 29.88 0.0
14 21:35 Calm 10.00 Fair CLR 73.4 62.6 69% 29.87 0.0
14 21:15 Calm 10.00 Fair CLR 73.4 62.6 69% 29.88 0.0
14 20:55 Calm 10.00 Fair CLR 75.2 62.6 65% 77 29.88 0.0
14 20:35 Calm 10.00 Fair CLR 78.8 64.4 61% 81 29.9 0.0
14 20:15 W 3 10.00 Fair CLR 78.8 60.8 54% 80 29.9 0.0
14 19:55 Calm 10.00 Fair CLR 80.6 59 48% 81 29.9 0.0
14 19:35 Calm 10.00 Fair CLR 82.4 57.2 42% 82 29.9 0.0
14 19:15 Calm 10.00 Fair CLR 82.4 57.2 42% 82 29.9 0.0
14 18:55 NW 3 10.00 Fair CLR 82.4 55.4 40% 82 29.91 0.0
14 18:35 N 5 10.00 Fair CLR 82.4 55.4 40% 82 29.91 0.0
14 18:15 N 5 10.00 Fair CLR 82.4 57.2 42% 82 29.91 0.0
14 17:55 N 9 10.00 Fair CLR 82.4 57.2 42% 82 29.92 0.0
14 17:35 N 6 10.00 Fair CLR 82.4 60.8 48% 83 29.92 0.0
14 17:15 Vrbl 6 10.00 Fair CLR 84.2 59 43% 84 29.93 0.0
14 16:55 N 8 10.00 Fair CLR 84.2 59 43% 84 29.93 0.0
14 16:35 Vrbl 6 10.00 Fair CLR 82.4 60.8 48% 83 29.93 0.0
14 16:15 NW 7 10.00 Fair CLR 82.4 60.8 48% 83 29.93 0.0
14 15:55 NW 6 G 13 10.00 Fair CLR 82.4 60.8 48% 83 29.93 0.0
14 15:35 NW 7 G 13 10.00 Fair CLR 82.4 60.8 48% 83 29.94 0.0
14 15:15 Vrbl 7 G 14 10.00 Fair CLR 82.4 59 45% 82 29.94 0.0
14 14:55 Vrbl 7 10.00 Fair CLR 82.4 60.8 48% 83 29.93 0.0
14 14:35 Vrbl 6 G 13 10.00 Fair CLR 82.4 60.8 48% 83 29.93 0.0
14 14:15 NE 6 G 12 10.00 Fair CLR 80.6 60.8 51% 81 29.93 0.0
14 13:55 N 12 G 18 10.00 Fair CLR 82.4 62.6 51% 83 29.92 0.0
14 13:35 NE 10 10.00 Fair CLR 80.6 62.6 54% 82 29.92 0.0
14 13:15 N 13 10.00 Fair CLR 80.6 60.8 51% 81 29.93 0.0
14 12:55 N 12 10.00 Fair CLR 80.6 64.4 58% 82 29.93 0.0
14 12:35 N 13 10.00 Fair CLR 80.6 64.4 58% 82 29.93 0.0
14 12:15 N 10 10.00 Fair CLR 78.8 62.6 58% 80 29.93 0.0
14 11:55 N 13 10.00 Fair CLR 78.8 64.4 61% 81 29.93 0.0
14 11:35 N 7 10.00 A Few Clouds FEW019 78.8 66.2 65% 81 29.93 0.0
14 11:15 Vrbl 3 10.00 A Few Clouds FEW017 77 68 74% 79 29.93 0.0
14 10:55 Vrbl 6 10.00 Partly Cloudy SCT015 75.2 68 78% 76 29.93 0.0
14 10:35 Calm 10.00 A Few Clouds FEW014 75.2 68 78% 76 29.93 0.0
14 10:15 N 5 10.00 A Few Clouds FEW010 73.4 68 83% 29.93 0.0
14 09:55 NW 5 10.00 Partly Cloudy SCT009 73.4 68 83% 29.94 0.0
14 09:35 Calm 10.00 Mostly Cloudy BKN007 BKN011 71.6 68 88% 29.94 0.0
14 09:15 Calm 10.00 Overcast OVC005 69.8 68 94% 29.94 0.0
14 08:55 N 5 10.00 Overcast OVC004 68 68 100% 29.94 0.0
14 08:35 NW 5 10.00 Overcast OVC004 68 66.2 94% 29.93 0.0
14 08:15 N 5 10.00 Overcast OVC004 68 66.2 94% 29.94 0.0
14 07:55 N 8 10.00 Overcast OVC004 66.2 66.2 100% 29.93 0.0
14 07:35 NW 8 5.00 Fog/Mist OVC003 66.2 66.2 100% 29.92 0.0
14 07:15 NW 8 G 16 4.00 Fog/Mist OVC003 66.2 66.2 100% 29.92 0.0
14 06:55 NW 10 6.00 Fog/Mist OVC004 66.2 66.2 100% 29.92 0.0
14 06:35 NW 6 10.00 Mostly Cloudy BKN004 66.2 66.2 100% 29.92 0.0
14 06:15 NW 3 10.00 Fair CLR 66.2 64.4 94% 29.91 0.0
14 05:55 NW 5 10.00 Fair CLR 64.4 64.4 100% 29.9 0.0
14 05:35 NW 6 10.00 Fair CLR 66.2 64.4 94% 29.89 0.0
14 05:15 NW 5 10.00 Fair CLR 66.2 64.4 94% 29.89 0.0
14 04:55 NW 6 10.00 Fair CLR 66.2 64.4 94% 29.9 0.0
14 04:35 NW 5 10.00 Fair CLR 64.4 64.4 100% 29.9 0.0
14 04:15 Calm 10.00 Fair CLR 64.4 62.6 94% 29.91 0.0
14 03:55 NW 3 10.00 Fair CLR 66.2 64.4 94% 29.9 0.0
14 03:35 NW 7 10.00 Fair CLR 66.2 64.4 94% 29.9 0.0
14 03:15 NW 7 10.00 Fair CLR 66.2 64.4 94% 29.9 0.0
14 02:55 NW 3 10.00 Fair CLR 66.2 64.4 94% 29.9 0.0
14 02:35 Calm 9.00 Fair CLR 64.4 64.4 100% 29.89 0.0
14 02:15 Calm 10.00 Fair CLR 66.2 64.4 94% 29.88 0.0
14 01:55 Calm 10.00 Fair CLR 66.2 64.4 94% 29.88 0.0
14 01:35 NW 3 10.00 Fair CLR 66.2 64.4 94% 29.89 0.0
14 01:15 Calm 10.00 Fair CLR 66.2 64.4 94% 29.89 0.0
14 00:55 Calm 10.00 Fair CLR 64.4 64.4 100% 29.9 0.0
14 00:35 Calm 10.00 Fair CLR 66.2 64.4 94% 29.91 0.0
14 00:15 NW 5 10.00 Fair CLR 66.2 66.2 100% 29.91 0.0
13 23:55 Calm 10.00 Fair CLR 68 66.2 94% 29.91 0.0
13 23:35 NW 3 10.00 Fair CLR 66.2 66.2 100% 29.91 0.0
13 23:15 Calm 10.00 Fair CLR 68 66.2 94% 29.91 0.0
13 22:55 E 6 10.00 Fair CLR 68 66.2 94% 29.91 0.0
13 22:35 N 5 10.00 Fair CLR 68 64.4 88% 29.89 0.0
13 22:15 Calm 10.00 Thunderstorm in Vicinity CLR 69.8 64.4 83% 29.9 0.0
13 21:55 Vrbl 5 10.00 Thunderstorm in Vicinity FEW029 FEW034 SCT060 69.8 60.8 73% 29.87 0.0 0.07
13 21:35 S 10 4.00 Thunderstorm Light Rain Fog/Mist SCT030 BKN039 OVC055 69.8 66.2 88% 29.91 0.0
13 21:15 SW 3 G 18 4.00 Thunderstorm Rain Haze FEW027 BKN032 OVC055 71.6 66.2 83% 29.94 0.0
13 20:55 NE 16 G 35 10.00 Thunderstorm BKN031 BKN044 BKN050 75.2 64.4 69% 77 29.92 0.0
13 20:35 Calm 10.00 Thunderstorm CLR 78.8 69.8 74% 81 29.91 0.0
13 20:15 SE 5 10.00 A Few Clouds FEW043 78.8 69.8 74% 81 29.88 0.0
13 19:55 SE 6 10.00 Thunderstorm in Vicinity OVC044 80.6 71.6 74% 85 29.89 0.0
13 19:35 SE 7 10.00 Overcast BKN047 OVC050 82.4 69.8 66% 86 29.88 0.0
13 19:15 S 8 10.00 Thunderstorm in Vicinity BKN050 82.4 69.8 66% 86 29.88 0.0
13 18:55 S 7 10.00 Overcast FEW038 OVC050 80.6 71.6 74% 85 29.87 0.0
13 18:35 S 7 10.00 Overcast SCT031 BKN039 OVC045 80.6 71.6 74% 85 29.89 0.0
13 18:15 S 6 10.00 Thunderstorm in Vicinity BKN031 BKN037 OVC046 82.4 69.8 66% 86 29.9 0.0
13 17:55 S 6 10.00 Overcast SCT036 BKN046 OVC055 84.2 69.8 62% 88 29.9 0.0
13 17:35 S 9 10.00 Mostly Cloudy SCT040 BKN048 BKN055 82.4 69.8 66% 86 29.91 0.0
13 17:15 SW 10 10.00 Mostly Cloudy SCT039 SCT046 BKN050 84.2 68 58% 87 29.91 0.0
13 16:55 S 7 10.00 Overcast BKN039 OVC046 84.2 68 58% 87 29.92 0.0
13 16:35 S 9 10.00 Overcast OVC039 84.2 68 58% 87 29.92 0.0
13 16:15 S 9 10.00 Overcast OVC037 84.2 66.2 55% 87 29.92 0.0
13 15:55 SW 12 10.00 Partly Cloudy SCT038 86 68 55% 89 29.93 0.0
13 15:35 S 10 10.00 Fair CLR 86 66.2 52% 88 29.93 0.0
13 15:15 S 9 G 15 10.00 Fair CLR 86 66.2 52% 88 29.92 0.0
13 14:55 S 10 10.00 Fair CLR 86 64.4 49% 87 29.92 0.0
13 14:35 S 10 10.00 Fair CLR 84.2 66.2 55% 87 29.93 0.0
13 14:15 S 9 10.00 Fair CLR 86 64.4 49% 87 29.93 0.0
13 13:55 SW 8 G 17 10.00 Fair CLR 84.2 64.4 51% 86 29.94 0.0
13 13:35 SW 13 10.00 Fair CLR 86 62.6 46% 87 29.96 0.0
13 13:15 SW 10 10.00 Fair CLR 86 62.6 46% 87 29.95 0.0
13 12:55 SW 8 G 18 10.00 Fair CLR 84.2 62.6 48% 85 29.95 0.0
13 12:35 SW 7 G 17 10.00 Fair CLR 84.2 64.4 51% 86 29.95 0.0
13 12:15 SW 9 10.00 Fair CLR 84.2 64.4 51% 86 29.95 0.0
13 11:55 SW 8 10.00 Fair CLR 84.2 64.4 51% 86 29.95 0.0
13 11:35 SW 9 G 16 10.00 Fair CLR 82.4 64.4 55% 84 29.94 0.0
13 11:15 SW 7 G 14 10.00 Fair CLR 80.6 64.4 58% 82 29.93 0.0
13 10:55 SW 10 10.00 Fair CLR 80.6 64.4 58% 82 29.94 0.0
13 10:35 SW 10 G 17 10.00 Fair CLR 80.6 62.6 54% 82 29.94 0.0
13 10:15 SW 7 G 14 10.00 Fair CLR 80.6 62.6 54% 82 29.94 0.0
13 09:55 W 7 10.00 NULL NULL 80.6 64.4 58% 82 29.95 0.0
13 09:15 S 6 10.00 Fair CLR 80.6 66.2 62% 83 29.95 0.0
13 08:55 S 7 10.00 Fair CLR 78.8 66.2 65% 81 29.95 0.0
13 08:35 S 5 10.00 Fair CLR 78.8 68 70% 81 29.95 0.0
13 08:15 S 3 10.00 Fair CLR 77 68 74% 79 29.95 0.0
13 07:55 S 3 10.00 A Few Clouds FEW120 75.2 68 78% 76 29.95 0.0
13 07:35 S 6 10.00 Partly Cloudy SCT120 73.4 69.8 89% 29.94 0.0
13 07:15 S 5 10.00 Fair CLR 71.6 69.8 94% 29.93 0.0
13 06:55 SE 6 10.00 Fair CLR 71.6 69.8 94% 29.93 0.0
13 06:35 SE 6 10.00 A Few Clouds FEW060 FEW070 FEW120 71.6 68 88% 29.92 0.0
13 06:15 SE 6 10.00 Mostly Cloudy SCT060 SCT075 BKN120 71.6 68 88% 29.92 0.0
13 05:55 SE 6 10.00 Partly Cloudy FEW065 SCT090 SCT120 71.6 69.8 94% 29.91 0.0
13 05:35 SE 9 10.00 Mostly Cloudy FEW055 SCT070 BKN090 71.6 68 88% 29.91 0.0
13 05:15 SE 12 10.00 Mostly Cloudy FEW046 SCT060 BKN100 71.6 68 88% 29.9 0.0
13 04:55 SE 7 10.00 A Few Clouds FEW065 FEW075 71.6 68 88% 29.89 0.0
13 04:35 SE 8 10.00 Mostly Cloudy FEW038 SCT060 BKN075 71.6 68 88% 29.9 0.0
13 04:15 S 8 10.00 Partly Cloudy FEW036 FEW055 SCT095 71.6 68 88% 29.91 0.0
13 03:55 SE 7 10.00 Thunderstorm in Vicinity FEW036 SCT055 BKN095 73.4 68 83% 29.93 0.0
13 03:35 SW 7 G 16 10.00 Thunderstorm in Vicinity FEW022 SCT032 BKN041 75.2 68 78% 76 29.95 0.0
13 03:15 NW 13 10.00 Thunderstorm in Vicinity FEW040 SCT055 71.6 68 88% 29.97 0.0
13 02:55 SE 6 10.00 Thunderstorm CLR 71.6 68 88% 29.95 0.0
13 02:35 SE 7 10.00 Partly Cloudy SCT041 SCT050 SCT055 71.6 66.2 83% 29.96 0.0
13 02:15 S 7 10.00 Overcast SCT042 SCT049 OVC055 71.6 68 88% 29.96 0.0
13 01:55 S 5 10.00 Mostly Cloudy BKN055 71.6 66.2 83% 29.97 0.0
13 01:35 S 3 10.00 A Few Clouds FEW055 71.6 66.2 83% 29.96 0.0
13 01:15 SE 6 10.00 Fair CLR 71.6 66.2 83% 29.96 0.0
13 00:55 SE 6 10.00 Fair CLR 71.6 66.2 83% 29.96 0.0
13 00:35 SE 6 10.00 Fair CLR 71.6 66.2 83% 29.97 0.0
13 00:15 SE 8 10.00 Fair CLR 73.4 66.2 78% 29.97 0.0
12 23:55 SE 7 10.00 Fair CLR 73.4 66.2 78% 29.97 0.0
12 23:35 SE 7 10.00 Fair CLR 73.4 66.2 78% 29.97 0.0
12 23:15 SE 7 10.00 Fair CLR 73.4 66.2 78% 29.97 0.0
12 22:55 SE 7 10.00 Fair CLR 73.4 66.2 78% 29.98 0.0
12 22:35 SE 8 10.00 Fair CLR 75.2 66.2 74% 77 29.97 0.0
12 22:15 SE 8 10.00 Fair CLR 75.2 66.2 74% 77 29.97 0.0
12 21:55 SE 9 10.00 Fair CLR 75.2 66.2 74% 77 29.97 0.0
12 21:35 SE 8 10.00 Fair CLR 75.2 66.2 74% 77 29.97 0.0
12 21:15 SE 7 10.00 Fair CLR 77 66.2 69% 79 29.97 0.0
12 20:55 S 9 10.00 Fair CLR 77 66.2 69% 79 29.97 0.0
12 20:35 S 9 10.00 Fair CLR 78.8 66.2 65% 81 29.98 0.0
12 20:15 S 9 10.00 Fair CLR 78.8 66.2 65% 81 29.97 0.0
12 19:55 S 8 10.00 Fair CLR 80.6 66.2 62% 83 29.97 0.0
12 19:35 S 7 G 14 10.00 Fair CLR 80.6 66.2 62% 83 29.97 0.0
12 19:15 SE 9 10.00 Fair CLR 80.6 66.2 62% 83 29.98 0.0
12 18:55 S 10 10.00 Partly Cloudy SCT090 82.4 64.4 55% 84 29.97 0.0
12 18:35 S 9 10.00 Mostly Cloudy BKN090 80.6 64.4 58% 82 29.97 0.0
Date Time (cdt) Wind (mph) Vis. (mi.) Weather Sky Cond. Air Dwpt Max. Min. Relative Humidity Wind Chill (°F) Heat Index (°F) altimeter (in) sea level (mb) 1 hr 3 hr 6 hr
6 hour
Temperature (ºF) Pressure Precipitation (in)